Simultaneous Nadir Overpasses (SNOs) Predictions

Prediction of SNOs between NPP and TERRA Satellite Orbit:

Table of predicted SNOs for the next 14.0 days since TLE Epoch: 2/17/2018
Index Date (NPP) Time (NPP) Lat,Lon (NPP) SZA (NPP ) Date (TERRA) Time (TERRA) Lat,Lon (TERRA) SZA (TERRA ) Distance(km) Time Diff (sec)
1 02/17/2018 10:39:09 68.98, 18.02 80.89 02/17/2018 10:40:18 68.91, 19.39 80.76 55.24 69
2 02/17/2018 11:29:40 -68.32,-173.78 99.82 02/17/2018 11:29:57 -68.30,-173.73 99.84 3.43 17
3 02/17/2018 12:20:23 68.13, -6.23 79.97 02/17/2018 12:19:25 68.13, -6.28 79.98 2.12 58
4 02/20/2018 02:55:50 68.39, 134.59 79.32 02/20/2018 02:56:55 68.40, 134.64 79.32 2.53 65
5 02/20/2018 03:46:31 -68.26, -57.93 100.83 02/20/2018 03:46:26 -68.24, -57.92 100.85 2.46 5
6 02/20/2018 04:37:09 67.80, 109.96 78.69 02/20/2018 04:35:57 67.90, 109.33 78.81 28.43 72
7 02/22/2018 19:12:42 68.33,-109.56 78.29 02/22/2018 19:13:25 68.33,-109.56 78.28 0.21 43
8 02/22/2018 20:03:23 -68.21, 57.92 101.86 02/22/2018 20:02:56 -68.18, 57.89 101.88 3.26 27
9 02/25/2018 10:39:06 -69.27,-162.35 101.72 02/25/2018 10:40:14 -69.16,-160.29 101.89 82.03 68
10 02/25/2018 11:29:34 68.28, 6.28 77.25 02/25/2018 11:29:55 68.27, 6.24 77.23 2.55 21
11 02/25/2018 12:20:15 -68.15, 173.77 102.91 02/25/2018 12:19:25 -68.17, 173.76 102.89 1.98 50
12 02/28/2018 02:55:44 -68.47, -45.48 103.56 02/28/2018 02:56:56 -68.43, -45.33 103.61 7.49 72
13 02/28/2018 03:46:26 68.23, 122.13 76.19 02/28/2018 03:46:24 68.25, 122.10 76.20 2.11 2
14 02/28/2018 04:37:07 -68.10, -70.38 103.97 02/28/2018 04:35:55 -68.10, -70.44 103.96 2.46 72
15 03/02/2018 19:12:34 -68.36, 70.43 104.69 03/02/2018 19:13:25 -68.36, 70.46 104.71 1.46 51
16 03/02/2018 20:03:18 68.24,-122.10 75.17 03/02/2018 20:02:52 68.23,-122.04 75.16 2.78 26
17 03/02/2018 20:53:44 -67.30, 46.38 105.82 03/02/2018 20:52:36 -67.36, 44.59 105.70 77.02 68




NCC Satellite Simultaneous Nadir Overpasses (SNOs) Prediction Service
